sat.trackr.live / text

‹ back to catalog

STARLINK-37582

NORAD 69363 · 2026-123L

PAYLOAD ACTIVE UNKNOWN

§ Identity

Operator
Country
US
Launch date
2026-06-04
Launch site
AFETR
Launch vehicle
Mass (kg)
RCS (m²)

Purposes: comms

External: N2YO · Heavens-Above · Gunter

§ Orbital elements

Epoch: 2026-09-19T22:40:15.278592Z

Period
93.85 min
Inclination
53.1593°
Eccentricity
0.0001321
Mean motion
15.34385423 rev/d
Perigee alt
461.8 km
Apogee alt
463.7 km
Semi-major
6,840.9 km
B*
5.0781e-4
RAAN
144.4140°
Arg perigee
84.2544°
Mean anomaly
275.8609°
Rev number
1,678

§ Raw data

STARLINK-375821 69363U 26123L   26262.94462128  .00016812  00000+0  50781-3 0  99962 69363  53.1593 144.4140 0001321  84.2544 275.8609 15.34385423 16784

JSON: /api/v1/satellites/69363 · /tle

For live sub-satellite position, see the globe view (requires WebGL).

§ Visibility from observer

Set your observer location to see the next 7 days of passes ≥ 10°. The values pass through the URL so the page stays shareable.

No JS? Fill the form by hand. The geolocation button needs JavaScript.